Temperature
18 17 17 17 17 17 17 17 17 17 17 17 17 17 17 17 17 17 17 17 17 17 17 17 16 16 16 16 16 16 15 15 15 15 15 15 15 15
17 17 17 17 17 17 17 17 17 16 16 17 17 17 17 17 17 17 17 17 17 17 16 16 16 16 16 16 15 15 15 15 15 15 15 15 15 15
17 17 17 17 17 17 17 17 17 16 16 17 17 17 17 17 17 17 17 16 16 16 16 16 16 16 16 15 15 15 15 15 15 15 15 15 14 14
17 17 17 17 17 17 17 17 17 16 16 16 16 16 16 16 16 16 16 16 16 16 16 16 16 16 16 15 15 15 15 15 15 15 14 14 14 14
17 17 17 17 17 17 17 17 17 16 16 16 16 16 16 16 16 16 16 16 16 16 16 15 15 15 15 15 15 15 15 14 14 14 14 14 14 14
17 17 17 17 17 17 16 16 16 16 16 16 16 16 16 16 16 16 16 16 16 15 15 15 15 15 15 15 15 15 14 14 14 14 14 14 14 14
17 17 17 16 16 16 16 16 16 16 16 16 16 15 15 15 15 16 15 15 15 15 15 15 15 15 15 15 15 14 14 14 14 14 14 14 13 13
17 17 16 16 16 16 16 16 16 15 15 15 15 15 15 15 15 15 15 15 15 15 15 15 15 15 15 14 14 14 14 14 14 14 14 13 13 13
16 16 16 16 16 16 16 15 15 15 15 15 15 15 15 15 15 15 15 14 14 14 14 14 14 14 14 14 14 14 14 14 13 13 13 13 13 13
15 15 15 15 15 15 15 15 15 15 15 15 15 15 15 14 14 14 14 14 14 14 14 14 14 14 14 14 14 13 13 13 13 13 13 13 12 12
15 15 14 14 14 14 14 14 14 14 14 14 14 14 14 14 14 14 13 13 13 14 13 13 13 13 13 13 13 13 13 13 12 12 12 12 12 12
14 14 14 14 14 14 14 14 14 14 14 14 14 14 14 14 13 13 13 13 13 13 13 13 13 13 12 13 13 13 12 12 12 12 12 12 12 11
14 14 14 14 13 13 13 13 13 13 13 13 13 13 13 13 13 13 13 12 12 12 12 12 12 12 12 12 12 12 12 12 12 12 11 11 11 11
13 13 13 13 13 13 13 13 13 13 12 12 12 12 12 12 12 12 12 12 12 12 12 12 12 12 12 12 11 12 12 11 11 11 11 11 11 11
13 13 13 12 12 12 12 12 12 12 12 12 12 12 12 12 12 12 12 12 12 12 12 12 12 12 12 11 11 11 11 11 11 11 11 11 11 10
12 12 12 12 12 12 12 12 12 11 11 11 11 11 11 11 11 11 11 11 11 11 11 11 11 11 11 11 11 11 11 11 11 11 10 10 10 10
12 11 12 12 12 11 11 11 11 11 11 11 11 10 11 11 11 11 11 11 11 11 11 11 11 11 11 11 11 10 10 10 10 10 10 10 10 10
11 11 11 11 11 11 11 10 10 10 10 10 10 10 10 10 10 10 10 10 10 11 11 11 11 10 10 10 10 10 10 10 10 10 10 10 10 10
11 11 10 10 10 10 10 10 10 10 10 10 10 10 10 9 10 10 10 10 10 10 10 10 10 10 10 10 10 10 10 10 10 10 9 9 9 9
10 10 10 10 10 9 9 9 9 9 9 9 9 9 9 9 9 9 9 9 9 9 9 10 10 10 10 10 10 10 10 9 9 9 9 9 9 9
10 9 9 9 9 9 9 9 9 9 9 9 8 8 8 9 9 9 9 9 9 9 9 9 9 9 9 9 9 9 9 9 9 9 9 8 8 8
9 9 9 9 9 9 9 9 9 9 8 8 8 8 8 8 8 8 8 8 8 8 8 8 8 8 8 8 8 8 8 8 8 8 8 8 8 8
8 8 8 8 8 8 8 8 8 8 8 8 8 8 8 8 8 8 8 8 7 7 8 8 8 8 8 8 8 8 8 8 8 7 7 8 7 7
Wind_Speed
6 6 5 4 4 5 4 4 4 3 4 3 2 2 2 3 4 3 4 5 6 6 6 6 6 6 6 6 6 6 6 6 6 6 6 6 6 6
4 5 5 4 4 4 4 4 4 4 4 3 3 2 1 2 3 4 4 5 6 6 6 6 6 6 5 5 5 5 5 5 5 5 5 5 5 6
5 6 6 5 5 4 4 4 5 4 5 4 2 2 2 2 2 2 3 3 3 5 6 6 6 6 5 5 5 5 6 6 5 5 6 6 6 6
7 6 6 5 6 5 5 5 5 5 5 5 3 2 3 2 2 2 2 2 2 4 6 6 6 7 6 6 6 6 6 6 6 6 6 6 6 6
6 7 7 6 6 5 5 5 5 5 4 4 3 2 2 2 1 1 2 2 2 3 4 5 6 6 7 6 6 6 6 6 6 6 6 6 6 6
6 6 6 6 7 6 6 6 5 4 4 4 3 3 2 2 2 2 2 2 2 2 3 4 5 6 6 6 6 6 6 6 6 6 6 7 6 6
4 5 6 6 7 6 6 6 5 4 4 4 4 3 3 2 3 2 3 2 2 2 2 3 3 3 4 5 6 6 6 6 7 7 7 7 7 7
4 4 5 5 6 6 6 6 7 6 6 5 4 4 5 4 3 3 3 3 3 2 3 3 2 3 3 4 5 6 7 6 6 6 7 7 7 7
3 3 4 4 4 4 4 5 5 6 7 6 6 6 6 5 5 5 5 4 5 2 3 3 3 4 4 5 7 7 7 7 6 6 6 7 8 7
4 4 4 3 3 4 4 3 3 4 5 5 6 6 6 5 6 5 5 3 3 2 3 3 3 4 4 4 7 8 8 7 7 7 6 6 7 7
3 3 3 3 3 4 4 3 3 4 4 4 5 5 5 5 5 3 3 3 3 3 4 3 3 3 3 4 5 8 8 8 7 7 6 6 6 6
3 3 4 4 4 5 5 4 4 4 3 2 3 3 3 4 5 5 5 4 3 3 4 4 3 2 2 2 3 4 5 7 7 6 6 6 6 5
3 3 3 3 4 5 5 5 6 4 3 3 3 3 2 3 3 4 5 5 5 4 3 4 3 3 3 2 2 3 4 4 4 5 6 6 7 6
3 3 2 2 3 4 4 5 4 3 2 2 2 3 3 3 3 4 5 5 5 6 5 5 4 4 4 3 3 2 3 3 4 4 4 5 6 8
2 3 3 3 3 3 3 3 3 2 2 2 3 4 4 4 3 3 3 3 3 4 4 5 5 4 4 4 4 3 2 3 4 4 4 4 4 4
1 1 2 2 1 1 1 1 2 2 3 3 3 3 3 3 3 3 3 3 3 3 3 4 5 5 5 5 5 4 3 3 3 4 4 4 4 5
1 0 0 0 1 1 1 1 1 2 3 3 3 3 3 3 3 3 3 3 4 4 3 2 2 3 5 5 5 5 4 4 3 3 4 4 5 5
2 1 1 2 2 2 2 2 2 2 3 3 3 3 3 3 3 3 3 4 4 5 4 3 2 2 2 3 6 6 5 4 3 4 4 4 5 4
1 1 2 2 2 2 2 2 2 2 2 2 3 3 3 3 3 3 3 3 4 4 4 3 4 4 5 5 4 6 6 4 4 4 4 4 4 4
1 2 2 2 3 3 3 2 2 2 2 2 3 3 3 3 3 3 3 4 4 4 3 3 4 4 6 5 4 3 5 5 4 4 4 3 2 2
1 2 2 3 3 3 3 3 3 3 2 2 3 3 3 3 3 3 3 4 4 4 4 4 4 4 3 1 2 2 2 4 5 4 3 3 2 2
2 2 3 3 3 3 3 3 3 2 3 3 3 3 3 3 4 4 3 4 4 4 5 4 2 1 2 3 4 4 3 2 1 3 4 4 3 4
3 3 3 3 3 3 3 3 3 3 3 3 3 3 3 3 3 3 3 3 3 4 4 3 2 2 2 3 3 3 2 2 1 1 2 2 3 3
Wind_Direction
222 219 223 227 217 218 212 203 204 247 264 253 253 259 244 242 242 224 223 217 210 211 214 221 228 223 218 216 218 216 217 221 216 214 217 219 225 235
222 222 230 231 221 218 217 215 210 216 246 250 241 254 254 254 235 225 231 224 218 214 214 216 218 217 213 207 203 206 207 205 203 206 207 213 223 233
229 225 234 229 223 222 218 213 215 211 235 258 245 248 237 239 240 224 228 219 216 214 214 212 208 207 205 203 204 206 206 201 201 203 204 213 223 233
231 225 234 229 225 224 217 216 216 213 216 244 251 239 239 232 228 227 236 220 208 211 210 212 208 206 204 206 209 209 206 202 201 203 209 217 225 233
226 226 230 222 227 224 219 217 216 215 214 224 247 241 242 220 219 228 237 234 221 218 213 216 214 211 208 208 211 211 209 210 210 208 212 217 224 230
224 226 229 223 226 223 221 218 211 208 206 215 236 246 243 229 204 221 248 243 241 229 220 217 216 213 212 210 209 210 210 209 211 213 215 219 223 225
236 237 235 229 225 219 219 210 201 204 205 214 229 236 237 225 225 220 233 248 250 231 227 227 216 217 215 216 216 218 215 213 212 213 216 219 222 221
244 250 248 241 232 218 213 204 197 203 209 211 222 229 236 234 234 224 224 235 253 223 212 239 208 224 221 215 215 210 211 213 214 213 215 218 220 218
241 245 246 244 224 219 216 213 215 218 210 207 217 229 230 226 218 226 224 232 243 220 200 239 225 235 235 224 210 204 205 209 215 218 220 222 220 220
244 239 233 235 228 204 205 210 229 237 228 220 225 231 232 223 214 219 225 232 248 228 205 233 233 239 245 231 212 206 208 209 213 217 222 226 226 224
262 255 237 236 225 192 193 205 230 253 246 227 231 231 226 217 200 188 194 205 247 242 211 222 231 234 241 243 226 212 211 212 213 215 217 219 219 217
266 258 239 231 227 197 204 208 229 248 248 247 246 250 239 218 197 203 205 212 233 240 207 202 213 206 238 232 227 217 216 218 216 215 213 209 201 200
261 262 256 224 217 204 206 218 227 232 235 230 237 247 245 236 231 224 218 212 221 236 204 191 203 206 223 228 219 213 209 210 213 220 219 214 201 195
258 262 262 239 223 212 212 220 214 211 223 229 244 253 252 251 246 242 233 230 234 237 214 199 208 206 208 225 231 209 210 211 208 215 217 210 208 208
263 262 256 241 228 230 225 212 204 208 217 235 244 253 255 253 248 245 244 241 245 241 217 213 216 209 210 221 227 219 219 218 210 215 215 210 209 207
284 288 266 250 239 245 258 238 224 224 228 239 250 260 262 249 238 233 235 233 240 256 246 221 217 212 218 221 217 223 218 215 212 215 214 215 213 209
187 312 306 254 254 262 264 261 239 233 239 251 252 257 258 253 254 245 229 224 230 243 255 253 236 223 226 219 222 227 226 227 220 210 208 220 219 213
151 191 244 255 246 245 248 262 260 251 251 250 248 250 254 250 252 249 236 229 234 240 245 241 223 221 233 237 223 229 230 231 227 211 209 220 231 223
152 220 246 256 262 260 250 251 262 267 259 251 252 253 252 248 244 238 231 233 239 243 242 231 219 216 233 252 240 211 222 227 216 218 218 220 234 234
220 245 256 262 263 264 262 259 260 264 262 263 262 258 251 246 244 243 237 235 236 243 247 239 230 226 233 246 253 246 214 214 214 220 223 229 241 242
273 269 266 266 266 264 264 264 256 257 262 260 262 262 255 247 244 242 237 232 235 238 243 249 254 250 246 228 239 251 239 218 209 210 211 212 227 225
271 272 277 275 270 269 268 266 262 260 265 260 262 263 261 252 248 246 244 243 243 244 254 264 266 231 215 230 245 250 261 269 237 200 202 200 210 220
260 265 271 276 274 270 267 261 257 257 256 257 261 264 261 258 255 250 249 250 254 253 254 257 255 244 241 237 244 247 251 264 266 259 294 282 227 236
Height
1532 1532 1533 1533 1534 1534 1535 1536 1536 1534 1534 1534 1535 1535 1535 1535 1535 1535 1535 1535 1535 1535 1534 1534 1534 1534 1534 1534 1534 1534 1535 1535 1536 1537 1537 1538 1538 1539
1528 1529 1529 1530 1530 1530 1531 1531 1532 1532 1531 1530 1531 1532 1532 1532 1532 1532 1532 1532 1532 1532 1531 1531 1531 1531 1531 1531 1531 1531 1532 1532 1532 1533 1533 1534 1534 1535
1524 1525 1525 1526 1526 1526 1527 1527 1528 1528 1527 1527 1527 1528 1528 1529 1529 1529 1529 1529 1528 1529 1529 1528 1529 1528 1528 1528 1528 1528 1529 1529 1529 1529 1530 1530 1531 1531
1520 1520 1521 1521 1522 1522 1522 1523 1523 1524 1524 1523 1523 1524 1524 1525 1525 1525 1525 1525 1525 1526 1526 1526 1526 1526 1526 1526 1526 1526 1526 1526 1526 1526 1527 1527 1527 1527
1515 1516 1516 1517 1517 1517 1518 1518 1519 1519 1520 1519 1519 1520 1520 1521 1521 1522 1522 1522 1522 1522 1522 1523 1523 1523 1523 1523 1523 1523 1523 1523 1523 1523 1523 1523 1523 1523
1510 1511 1512 1512 1512 1513 1513 1514 1515 1515 1515 1515 1515 1516 1516 1517 1517 1518 1518 1519 1519 1519 1519 1519 1519 1519 1519 1519 1519 1519 1519 1519 1519 1519 1520 1520 1519 1519
1506 1506 1506 1507 1507 1508 1509 1509 1510 1510 1510 1511 1511 1512 1512 1512 1512 1513 1513 1514 1514 1515 1515 1515 1515 1515 1515 1515 1515 1515 1516 1516 1516 1516 1516 1516 1516 1516
1501 1501 1502 1502 1502 1503 1503 1504 1504 1505 1505 1505 1506 1506 1506 1507 1508 1508 1509 1509 1509 1511 1511 1511 1511 1511 1511 1511 1511 1512 1512 1512 1512 1512 1512 1512 1512 1512
1496 1496 1497 1497 1497 1497 1498 1499 1499 1500 1501 1501 1501 1501 1502 1503 1503 1504 1504 1505 1505 1506 1506 1505 1506 1506 1507 1507 1507 1507 1508 1508 1508 1508 1508 1508 1507 1507
1492 1492 1491 1491 1492 1492 1492 1493 1494 1495 1496 1496 1496 1497 1498 1498 1499 1499 1499 1500 1500 1501 1501 1501 1501 1502 1502 1502 1503 1503 1503 1503 1503 1504 1504 1503 1503 1503
1487 1487 1487 1486 1487 1487 1488 1487 1488 1490 1491 1491 1492 1492 1493 1494 1494 1494 1494 1495 1494 1495 1497 1497 1496 1497 1497 1498 1498 1498 1498 1498 1499 1499 1499 1499 1499 1499
1482 1482 1482 1482 1483 1483 1483 1483 1483 1485 1486 1486 1486 1487 1488 1488 1488 1489 1489 1489 1489 1490 1491 1492 1492 1492 1492 1492 1493 1493 1493 1494 1494 1494 1495 1495 1495 1495
1478 1478 1478 1478 1479 1479 1479 1479 1480 1481 1481 1481 1481 1482 1482 1483 1483 1484 1485 1485 1485 1486 1487 1487 1488 1488 1488 1487 1488 1489 1489 1489 1489 1489 1490 1490 1490 1490
1474 1474 1474 1475 1475 1475 1476 1476 1476 1477 1477 1477 1476 1476 1477 1478 1478 1479 1480 1480 1481 1481 1482 1483 1483 1483 1483 1483 1483 1484 1485 1485 1485 1485 1485 1486 1486 1486
1471 1471 1471 1472 1472 1472 1472 1472 1472 1472 1472 1472 1472 1472 1473 1473 1474 1475 1475 1475 1476 1477 1477 1478 1478 1478 1478 1478 1479 1479 1480 1480 1480 1480 1481 1481 1481 1481
1468 1468 1468 1468 1468 1468 1468 1468 1468 1468 1468 1468 1468 1468 1469 1469 1469 1470 1470 1471 1471 1471 1472 1473 1473 1473 1473 1474 1475 1475 1475 1475 1475 1476 1476 1476 1477 1477
1464 1464 1464 1464 1464 1464 1464 1464 1464 1464 1464 1464 1464 1464 1464 1464 1465 1465 1465 1466 1466 1466 1467 1468 1468 1468 1469 1470 1470 1470 1470 1470 1470 1471 1471 1471 1471 1472
1462 1461 1460 1460 1460 1460 1460 1460 1460 1460 1460 1460 1459 1459 1459 1459 1460 1460 1461 1461 1461 1461 1462 1463 1463 1463 1464 1464 1465 1465 1465 1465 1465 1466 1466 1466 1466 1467
1458 1458 1457 1457 1457 1456 1456 1456 1456 1456 1456 1455 1455 1455 1455 1455 1455 1455 1455 1456 1456 1457 1457 1458 1458 1458 1458 1458 1459 1460 1460 1460 1460 1460 1460 1461 1461 1462
1455 1454 1454 1454 1453 1453 1453 1453 1452 1452 1452 1451 1451 1451 1451 1450 1450 1450 1450 1450 1451 1451 1452 1452 1452 1452 1453 1453 1453 1454 1455 1455 1455 1455 1456 1456 1457 1458
1452 1451 1451 1451 1451 1450 1450 1450 1449 1448 1448 1447 1447 1447 1446 1446 1446 1446 1445 1446 1446 1447 1447 1447 1447 1448 1448 1449 1449 1448 1449 1450 1450 1450 1451 1451 1451 1452
1449 1449 1448 1448 1447 1447 1447 1446 1445 1444 1444 1444 1443 1443 1442 1442 1441 1441 1441 1441 1442 1442 1442 1443 1444 1444 1444 1444 1443 1444 1444 1445 1445 1446 1447 1447 1446 1447
1447 1446 1445 1445 1444 1444 1443 1443 1442 1441 1440 1440 1440 1439 1439 1438 1437 1437 1437 1437 1437 1437 1438 1438 1438 1439 1439 1439 1439 1439 1439 1440 1440 1441 1441 1442 1443 1444